• In Netherlands
  • List of Countries
  • For 7 days
  • Water Temperature
  • Satellite Maps
  • Weather Map
  • Weather Widgets
  • user-avatar
    Login

    Hourly Weather Algiers

    Today, 25 June, Sunday

    Time Temperature Precipitation Wind Pressure Humidity
    00:00 +25°C° 0 mm 3 mps 749 mmHg 49%
    01:00 +25°C° 0 mm 3 mps 749 mmHg 46%
    02:00 +25°C° 0 mm 3 mps 748 mmHg 43%
    03:00 +25°C° 0 mm 3 mps 748 mmHg 40%
    04:00 +27°C° 0 mm 3 mps 748 mmHg 37%
    05:00 +28°C° 0 mm 3 mps 748 mmHg 35%
    06:00 +30°C° 0 mm 3 mps 748 mmHg 32%
    07:00 +34°C° 0 mm 3 mps 748 mmHg 27%
    08:00 +37°C° 0 mm 3 mps 748 mmHg 21%
    09:00 +40°C° 0 mm 3 mps 748 mmHg 16%
    10:00 +42°C° 0 mm 4 mps 748 mmHg 15%
    11:00 +42°C° 0 mm 4 mps 747 mmHg 15%
    12:00 +43°C° 0 mm 5 mps 747 mmHg 14%
    13:00 +43°C° 0 mm 5 mps 747 mmHg 15%
    14:00 +44°C° 0 mm 6 mps 746 mmHg 16%
    15:00 +42°C° 0 mm 6 mps 746 mmHg 17%
    16:00 +41°C° 0 mm 6 mps 746 mmHg 20%
    17:00 +40°C° 0 mm 6 mps 746 mmHg 23%
    18:00 +38°C° 0 mm 6 mps 745 mmHg 26%
    19:00 +35°C° 0 mm 5 mps 745 mmHg 28%
    20:00 +33°C° 0 mm 5 mps 745 mmHg 31%
    21:00 +30°C° 0 mm 4 mps 746 mmHg 33%
    22:00 +30°C° 0 mm 5 mps 745 mmHg 30%
    23:00 +32°C° 0 mm 5 mps 745 mmHg 27%

    Tomorrow, 26 June, Monday

    Time Temperature Precipitation Wind Pressure Humidity
    00:00 +32°C° 0 mm 5 mps 745 mmHg 24%
    01:00 +32°C° 0 mm 4 mps 744 mmHg 24%
    02:00 +32°C° 0 mm 4 mps 744 mmHg 23%
    03:00 +32°C° 0 mm 4 mps 744 mmHg 23%
    04:00 +33°C° 0 mm 4 mps 744 mmHg 24%
    05:00 +33°C° 0 mm 4 mps 744 mmHg 25%
    06:00 +33°C° 0 mm 4 mps 744 mmHg 27%
    07:00 +36°C° 0 mm 4 mps 744 mmHg 22%
    08:00 +38°C° 0 mm 4 mps 745 mmHg 18%
    09:00 +42°C° 0 mm 4 mps 745 mmHg 14%
    10:00 +42°C° 0 mm 5 mps 745 mmHg 17%
    11:00 +42°C° 0 mm 6 mps 745 mmHg 20%
    12:00 +44°C° 0 mm 7 mps 745 mmHg 22%
    13:00 +41°C° 0 mm 6 mps 745 mmHg 28%
    14:00 +40°C° 0 mm 6 mps 745 mmHg 33%
    15:00 +39°C° 0 mm 5 mps 745 mmHg 38%
    16:00 +37°C° 0 mm 4 mps 745 mmHg 42%
    17:00 +36°C° 0 mm 3 mps 745 mmHg 45%
    18:00 +34°C° 0 mm 2 mps 745 mmHg 49%
    19:00 +34°C° 0 mm 2 mps 745 mmHg 50%
    20:00 +32°C° 0 mm 2 mps 746 mmHg 51%
    21:00 +32°C° 0 mm 2 mps 746 mmHg 51%
    22:00 +32°C° 0 mm 2 mps 746 mmHg 48%
    23:00 +31°C° 0 mm 2 mps 745 mmHg 46%

    Day after tomorrow, 27 June, Tuesday

    Time Temperature Precipitation Wind Pressure Humidity
    00:00 +31°C° 0 mm 2 mps 745 mmHg 43%
    01:00 +31°C° 0 mm 1 mps 745 mmHg 42%
    02:00 +30°C° 0 mm 1 mps 744 mmHg 42%
    03:00 +29°C° 0 mm 1 mps 744 mmHg 41%
    04:00 +31°C° 0 mm 1 mps 744 mmHg 41%
    05:00 +32°C° 0 mm 1 mps 745 mmHg 41%
    06:00 +33°C° 0 mm 1 mps 745 mmHg 41%
    07:00 +35°C° 0 mm 1 mps 745 mmHg 34%
    08:00 +39°C° 0 mm 1 mps 745 mmHg 28%
    09:00 +41°C° 0 mm 1 mps 745 mmHg 21%
    10:00 +41°C° 0 mm 2 mps 745 mmHg 21%
    11:00 +43°C° 0 mm 3 mps 745 mmHg 21%
    12:00 +43°C° 0 mm 4 mps 745 mmHg 22%
    13:00 +42°C° 0 mm 4 mps 745 mmHg 23%
    14:00 +42°C° 0 mm 4 mps 744 mmHg 24%
    15:00 +41°C° 0 mm 5 mps 744 mmHg 26%
    16:00 +38°C° 0.1 mm 4 mps 744 mmHg 31%
    17:00 +37°C° 0.1 mm 3 mps 744 mmHg 36%
    18:00 +35°C° 0.1 mm 3 mps 744 mmHg 41%
    19:00 +34°C° 0 mm 3 mps 744 mmHg 44%
    20:00 +31°C° 0 mm 2 mps 744 mmHg 47%
    21:00 +30°C° 0 mm 2 mps 744 mmHg 49%
    22:00 +31°C° 0 mm 3 mps 744 mmHg 48%
    23:00 +31°C° 0 mm 3 mps 744 mmHg 46%

    28 June, Wednesday

    Time Temperature Precipitation Wind Pressure Humidity
    00:00 +32°C° 0 mm 4 mps 744 mmHg 44%
    01:00 +32°C° 0.1 mm 4 mps 744 mmHg 44%
    02:00 +30°C° 0.1 mm 4 mps 744 mmHg 44%
    03:00 +30°C° 0.1 mm 5 mps 744 mmHg 44%
    04:00 +30°C° 0.1 mm 5 mps 744 mmHg 44%
    05:00 +30°C° 0.1 mm 5 mps 744 mmHg 44%
    06:00 +30°C° 0.1 mm 6 mps 745 mmHg 44%
    07:00 +33°C° 0 mm 6 mps 745 mmHg 37%
    08:00 +34°C° 0 mm 6 mps 745 mmHg 30%
    09:00 +36°C° 0 mm 7 mps 745 mmHg 23%
    10:00 +36°C° 0 mm 7 mps 745 mmHg 24%
    11:00 +38°C° 0 mm 7 mps 745 mmHg 25%
    12:00 +38°C° 0 mm 7 mps 745 mmHg 25%
    13:00 +38°C° 0 mm 7 mps 744 mmHg 30%
    14:00 +36°C° 0 mm 7 mps 744 mmHg 34%
    15:00 +35°C° 0 mm 7 mps 744 mmHg 38%
    16:00 +34°C° 0 mm 7 mps 744 mmHg 41%
    17:00 +33°C° 0 mm 6 mps 744 mmHg 44%
    18:00 +30°C° 0 mm 6 mps 744 mmHg 47%
    19:00 +29°C° 0 mm 5 mps 744 mmHg 52%
    20:00 +27°C° 0 mm 5 mps 745 mmHg 56%
    21:00 +26°C° 0 mm 4 mps 745 mmHg 61%
    22:00 +26°C° 0 mm 4 mps 745 mmHg 58%
    23:00 +25°C° 0 mm 4 mps 745 mmHg 56%

    29 June, Thursday

    Time Temperature Precipitation Wind Pressure Humidity
    00:00 +25°C° 0 mm 4 mps 745 mmHg 54%
    01:00 +25°C° 0 mm 4 mps 745 mmHg 50%
    02:00 +25°C° 0 mm 4 mps 745 mmHg 47%
    03:00 +25°C° 0 mm 5 mps 744 mmHg 44%
    04:00 +25°C° 0 mm 5 mps 745 mmHg 44%
    05:00 +26°C° 0 mm 5 mps 745 mmHg 45%
    06:00 +26°C° 0 mm 5 mps 745 mmHg 46%
    07:00 +28°C° 0 mm 5 mps 745 mmHg 43%
    08:00 +29°C° 0 mm 5 mps 745 mmHg 40%
    09:00 +32°C° 0 mm 5 mps 746 mmHg 38%
    10:00 +33°C° 0 mm 6 mps 745 mmHg 36%
    11:00 +34°C° 0 mm 6 mps 745 mmHg 34%
    12:00 +35°C° 0 mm 7 mps 745 mmHg 32%
    13:00 +34°C° 0 mm 7 mps 745 mmHg 36%
    14:00 +34°C° 0 mm 7 mps 745 mmHg 40%
    15:00 +33°C° 0 mm 7 mps 744 mmHg 44%
    16:00 +32°C° 0 mm 6 mps 744 mmHg 49%
    17:00 +30°C° 0 mm 6 mps 744 mmHg 55%
    18:00 +28°C° 0 mm 5 mps 744 mmHg 60%
    19:00 +27°C° 0 mm 5 mps 745 mmHg 65%
    20:00 +25°C° 0 mm 4 mps 746 mmHg 71%
    21:00 +24°C° 0 mm 3 mps 746 mmHg 76%
    22:00 +24°C° 0 mm 3 mps 746 mmHg 77%
    23:00 +23°C° 0 mm 2 mps 746 mmHg 79%

    30 June, Friday

    Time Temperature Precipitation Wind Pressure Humidity
    00:00 +23°C° 0 mm 2 mps 745 mmHg 81%
    01:00 +22°C° 0 mm 1 mps 745 mmHg 81%
    02:00 +22°C° 0 mm 1 mps 745 mmHg 80%
    03:00 +21°C° 0 mm 1 mps 745 mmHg 80%
    04:00 +22°C° 0 mm 1 mps 745 mmHg 72%
    05:00 +24°C° 0 mm 1 mps 745 mmHg 65%
    06:00 +25°C° 0 mm 1 mps 745 mmHg 57%
    07:00 +27°C° 0 mm 2 mps 746 mmHg 48%
    08:00 +28°C° 0 mm 2 mps 746 mmHg 39%
    09:00 +30°C° 0 mm 2 mps 746 mmHg 30%
    10:00 +31°C° 0 mm 3 mps 746 mmHg 29%
    11:00 +33°C° 0 mm 3 mps 746 mmHg 27%
    12:00 +34°C° 0 mm 4 mps 746 mmHg 26%
    13:00 +34°C° 0 mm 4 mps 746 mmHg 28%
    14:00 +33°C° 0 mm 5 mps 746 mmHg 31%
    15:00 +33°C° 0 mm 5 mps 746 mmHg 34%
    16:00 +30°C° 0 mm 4 mps 746 mmHg 38%
    17:00 +29°C° 0 mm 4 mps 747 mmHg 43%
    18:00 +28°C° 0 mm 3 mps 747 mmHg 48%
    19:00 +26°C° 0 mm 3 mps 748 mmHg 56%
    20:00 +24°C° 0 mm 2 mps 749 mmHg 65%
    21:00 +23°C° 0 mm 1 mps 749 mmHg 74%
    22:00 +22°C° 0 mm 1 mps 749 mmHg 77%
    23:00 +21°C° 0 mm 1 mps 749 mmHg 80%
    Show more